When you browse on this site, cookies collect data to enhance your experience and personalize the content and advertising you see.
Visit our Privacy Policy to learn more. By continuing to use the site, you agree to this use of cookies and data.
  • In Spain
  • List of Countries
  • For 7 days
  • Water Temperature
  • Weather Map
  • Weather Widgets
  • user-avatar
    Login

    Hourly Weather Nam Dinh

    Today, 3 June, Wednesday

    Time Temperature Precipitation Wind Pressure Humidity
    00:00 +32°C° 0 mm 7 mps 752 mmHg 70%
    01:00 +32°C° 0 mm 7 mps 752 mmHg 71%
    02:00 +32°C° 0 mm 6 mps 752 mmHg 72%
    03:00 +30°C° 0 mm 5 mps 751 mmHg 73%
    04:00 +30°C° 0 mm 4 mps 751 mmHg 74%
    05:00 +30°C° 0 mm 4 mps 752 mmHg 72%
    06:00 +32°C° 0 mm 4 mps 752 mmHg 70%
    07:00 +32°C° 0 mm 4 mps 752 mmHg 68%
    08:00 +34°C° 0 mm 4 mps 752 mmHg 61%
    09:00 +36°C° 0 mm 4 mps 752 mmHg 55%
    10:00 +38°C° 0 mm 3 mps 752 mmHg 48%
    11:00 +39°C° 0 mm 3 mps 752 mmHg 45%
    12:00 +40°C° 0 mm 3 mps 752 mmHg 41%
    13:00 +42°C° 0 mm 3 mps 751 mmHg 38%
    14:00 +41°C° 0 mm 4 mps 750 mmHg 42%
    15:00 +40°C° 0 mm 5 mps 750 mmHg 46%
    16:00 +40°C° 0 mm 6 mps 749 mmHg 50%
    17:00 +38°C° 0 mm 6 mps 750 mmHg 56%
    18:00 +35°C° 0 mm 6 mps 750 mmHg 63%
    19:00 +33°C° 0 mm 6 mps 750 mmHg 69%
    20:00 +33°C° 0 mm 5 mps 751 mmHg 71%
    21:00 +33°C° 0 mm 5 mps 752 mmHg 73%
    22:00 +33°C° 0 mm 5 mps 752 mmHg 75%
    23:00 +33°C° 0 mm 5 mps 752 mmHg 75%

    Tomorrow, 4 June, Thursday

    Time Temperature Precipitation Wind Pressure Humidity
    00:00 +33°C° 0 mm 6 mps 751 mmHg 76%
    01:00 +33°C° 0 mm 6 mps 751 mmHg 76%
    02:00 +32°C° 0 mm 6 mps 751 mmHg 77%
    03:00 +32°C° 0 mm 6 mps 751 mmHg 77%
    04:00 +32°C° 0 mm 6 mps 751 mmHg 78%
    05:00 +33°C° 0 mm 5 mps 751 mmHg 76%
    06:00 +33°C° 0 mm 5 mps 752 mmHg 74%
    07:00 +33°C° 0 mm 5 mps 752 mmHg 72%
    08:00 +35°C° 0 mm 4 mps 752 mmHg 65%
    09:00 +37°C° 0 mm 4 mps 752 mmHg 58%
    10:00 +38°C° 0 mm 3 mps 752 mmHg 51%
    11:00 +40°C° 0 mm 4 mps 752 mmHg 48%
    12:00 +41°C° 0 mm 4 mps 751 mmHg 45%
    13:00 +42°C° 0 mm 4 mps 750 mmHg 41%
    14:00 +41°C° 0 mm 5 mps 750 mmHg 45%
    15:00 +40°C° 0 mm 6 mps 749 mmHg 50%
    16:00 +39°C° 0 mm 6 mps 749 mmHg 54%
    17:00 +38°C° 0 mm 6 mps 749 mmHg 59%
    18:00 +35°C° 0 mm 5 mps 750 mmHg 64%
    19:00 +34°C° 0 mm 5 mps 750 mmHg 70%
    20:00 +34°C° 0 mm 5 mps 751 mmHg 72%
    21:00 +33°C° 0 mm 6 mps 751 mmHg 74%
    22:00 +33°C° 0 mm 6 mps 751 mmHg 76%
    23:00 +33°C° 0 mm 6 mps 751 mmHg 74%

    Day after tomorrow, 5 June, Friday

    Time Temperature Precipitation Wind Pressure Humidity
    00:00 +33°C° 0 mm 6 mps 751 mmHg 72%
    01:00 +33°C° 0 mm 6 mps 751 mmHg 70%
    02:00 +33°C° 0 mm 5 mps 750 mmHg 70%
    03:00 +32°C° 0 mm 5 mps 750 mmHg 71%
    04:00 +32°C° 0 mm 4 mps 750 mmHg 72%
    05:00 +31°C° 0 mm 3 mps 750 mmHg 71%
    06:00 +33°C° 0 mm 3 mps 750 mmHg 70%
    07:00 +32°C° 0 mm 2 mps 751 mmHg 69%
    08:00 +35°C° 0 mm 2 mps 751 mmHg 62%
    09:00 +37°C° 0 mm 2 mps 751 mmHg 55%
    10:00 +39°C° 0 mm 2 mps 751 mmHg 47%
    11:00 +40°C° 0 mm 3 mps 751 mmHg 44%
    12:00 +42°C° 0 mm 4 mps 750 mmHg 40%
    13:00 +43°C° 0 mm 4 mps 750 mmHg 37%
    14:00 +42°C° 0 mm 5 mps 749 mmHg 40%
    15:00 +41°C° 0 mm 5 mps 749 mmHg 44%
    16:00 +41°C° 0 mm 6 mps 748 mmHg 47%
    17:00 +39°C° 0 mm 6 mps 748 mmHg 52%
    18:00 +38°C° 0 mm 6 mps 749 mmHg 57%
    19:00 +35°C° 0 mm 6 mps 749 mmHg 62%
    20:00 +35°C° 0 mm 6 mps 749 mmHg 63%
    21:00 +35°C° 0 mm 5 mps 750 mmHg 64%
    22:00 +35°C° 0 mm 5 mps 750 mmHg 64%
    23:00 +34°C° 0 mm 5 mps 750 mmHg 65%

    6 June, Saturday

    Time Temperature Precipitation Wind Pressure Humidity
    00:00 +34°C° 0 mm 5 mps 750 mmHg 66%
    01:00 +34°C° 0 mm 5 mps 749 mmHg 66%
    02:00 +33°C° 0.1 mm 5 mps 749 mmHg 68%
    03:00 +33°C° 0.1 mm 4 mps 749 mmHg 69%
    04:00 +33°C° 0.1 mm 4 mps 749 mmHg 70%
    05:00 +33°C° 0 mm 4 mps 749 mmHg 70%
    06:00 +33°C° 0 mm 3 mps 750 mmHg 69%
    07:00 +33°C° 0 mm 3 mps 750 mmHg 68%
    08:00 +35°C° 0 mm 3 mps 750 mmHg 64%
    09:00 +36°C° 0 mm 2 mps 750 mmHg 60%
    10:00 +37°C° 0 mm 2 mps 751 mmHg 55%
    11:00 +38°C° 0 mm 2 mps 750 mmHg 51%
    12:00 +39°C° 0 mm 2 mps 750 mmHg 47%
    13:00 +41°C° 0 mm 2 mps 749 mmHg 43%
    14:00 +40°C° 0 mm 3 mps 749 mmHg 47%
    15:00 +40°C° 0 mm 4 mps 748 mmHg 50%
    16:00 +39°C° 0 mm 5 mps 748 mmHg 53%
    17:00 +37°C° 0 mm 5 mps 748 mmHg 57%
    18:00 +36°C° 0 mm 4 mps 748 mmHg 62%
    19:00 +34°C° 0 mm 4 mps 748 mmHg 66%
    20:00 +33°C° 2.3 mm 4 mps 749 mmHg 72%
    21:00 +31°C° 2.3 mm 3 mps 750 mmHg 77%
    22:00 +29°C° 2.3 mm 3 mps 751 mmHg 83%
    23:00 +29°C° 1.2 mm 3 mps 750 mmHg 83%

    7 June, Sunday

    Time Temperature Precipitation Wind Pressure Humidity
    00:00 +29°C° 1.2 mm 2 mps 750 mmHg 82%
    01:00 +29°C° 1.2 mm 2 mps 750 mmHg 82%
    02:00 +29°C° 0.4 mm 2 mps 750 mmHg 82%
    03:00 +29°C° 0.4 mm 1 mps 750 mmHg 82%
    04:00 +29°C° 0.4 mm 1 mps 750 mmHg 82%
    05:00 +29°C° 0 mm 1 mps 750 mmHg 81%
    06:00 +29°C° 0 mm 1 mps 750 mmHg 80%
    07:00 +30°C° 0 mm 1 mps 750 mmHg 80%
    08:00 +31°C° 0 mm 1 mps 751 mmHg 75%
    09:00 +32°C° 0 mm 1 mps 751 mmHg 71%
    10:00 +34°C° 0 mm 2 mps 751 mmHg 67%
    11:00 +34°C° 0 mm 2 mps 751 mmHg 68%
    12:00 +34°C° 0 mm 2 mps 750 mmHg 70%
    13:00 +34°C° 0 mm 3 mps 750 mmHg 71%
    14:00 +34°C° 0 mm 3 mps 749 mmHg 70%
    15:00 +34°C° 0 mm 3 mps 749 mmHg 68%
    16:00 +35°C° 0 mm 3 mps 748 mmHg 67%
    17:00 +34°C° 0 mm 3 mps 748 mmHg 70%
    18:00 +33°C° 0 mm 3 mps 748 mmHg 72%
    19:00 +33°C° 0 mm 3 mps 748 mmHg 75%
    20:00 +33°C° 0 mm 4 mps 749 mmHg 75%
    21:00 +33°C° 0 mm 4 mps 749 mmHg 75%
    22:00 +33°C° 0 mm 4 mps 750 mmHg 75%
    23:00 +33°C° 0 mm 4 mps 750 mmHg 73%

    8 June, Monday

    Time Temperature Precipitation Wind Pressure Humidity
    00:00 +32°C° 0 mm 4 mps 749 mmHg 71%
    01:00 +32°C° 0 mm 4 mps 749 mmHg 69%
    02:00 +32°C° 0 mm 4 mps 749 mmHg 70%
    03:00 +32°C° 0 mm 4 mps 749 mmHg 71%
    04:00 +30°C° 0 mm 4 mps 749 mmHg 71%
    05:00 +32°C° 0 mm 4 mps 749 mmHg 70%
    06:00 +32°C° 0 mm 4 mps 750 mmHg 69%
    07:00 +32°C° 0 mm 4 mps 750 mmHg 68%
    08:00 +33°C° 0 mm 3 mps 750 mmHg 64%
    09:00 +35°C° 0 mm 3 mps 751 mmHg 59%
    10:00 +36°C° 0 mm 3 mps 751 mmHg 55%
    11:00 +37°C° 0 mm 3 mps 751 mmHg 53%
    12:00 +37°C° 0 mm 4 mps 750 mmHg 51%
    13:00 +38°C° 0 mm 4 mps 750 mmHg 49%
    14:00 +39°C° 0 mm 5 mps 749 mmHg 50%
    15:00 +37°C° 0 mm 5 mps 749 mmHg 52%
    16:00 +37°C° 0 mm 5 mps 748 mmHg 53%
    17:00 +36°C° 0 mm 5 mps 749 mmHg 58%
    18:00 +35°C° 0 mm 5 mps 749 mmHg 62%
    19:00 +34°C° 0 mm 4 mps 749 mmHg 67%
    20:00 +34°C° 0 mm 5 mps 750 mmHg 69%
    21:00 +34°C° 0 mm 6 mps 750 mmHg 70%
    22:00 +34°C° 0 mm 6 mps 751 mmHg 72%
    23:00 +33°C° 0 mm 7 mps 751 mmHg 71%
    Show more